Погода в Камышлове

Погода в Камышлове : погода сейчас, прогноз погоды и архив. Всё, что Вы хотите узнать о погоде в Камышлове!

Хотите узнать прогноз погоды в Камышлове? Тогда Вам сюда: Погода в Камышлове

Поиск расширенной информации на нашем сайте:

Другие новости

Новости СМИ2

Главная страница сайта

Новости сайта

02.10.2013

Напоминаем, что на нашем новом сайте вы можете получить высокодетализированные прогнозы погоды по пунктам России, СНГ и мира (включающие важные для авиации метеовеличины, такие как направление и скорость ветра, видимость, явления погоды, количество и форма облачности, нижняя и верхняя граница облачности), а также ознакомиться с разнообразными материалами по авиационной метеорологии и подборкой полезных ссылок на эту тему.

Сайт Метеоцентр.Азия посвящён разработке технологий оптимизации авиаметеорологического обслуживания, включая проектирование и перспективное создание нескольких автоматизированных авиаметеорологических систем:
- система выпуска высокодетальных прогностических карт явлений погоды для нижнего воздушного пространства по России и ближнему зарубежью;
- система верификации прогнозов TAF (выпускаемых синоптиками официальных АМСГ РФ и ближнего зарубежья) и AUTOTAF (выпускаемых сайтом Метеоцентр.Азия) - выявление ошибок, онлайн-сопоставление с фактической погодой METAR, автоматическое внесение коррективов в прогнозы при резком отклонении фактической погоды от прогноза, подсчёт оправдываемости прогнозов по элементам и в целом;
- система обработки, анализа и отображения авиаметеорологической информации для применения провайдерами метеорологической информации.


Погода в Камышлове - сегодня

Время (UTC), дата Ветер
(°,м/с) 
Видим.   Явления Облачность Т
(°С)
Тd
(°С)
f(%) Тe
(°С)
Pmin
(гПа)
dP
(гПа)
Po
(мм)
O2
(г/м3)
Тmin Tmax R s Состояние
почвы
15 24.03.17 270 (З) 4000 м    10/0 средняя 
[Ac As]
+0.9 -2.8 76 1014.6  0.3  749  301    +2.9       
18 24.03.17 280 (З) 4000 м    10/0 средняя 
[Ac As]
+0.2 -3.8 74 -2  1015.3  0.6  750  302           
21 24.03.17 260 (З) н/о    н/о 
-2.1 -5.4 78 -3  1015.5  0.1  750  305           
00 25.03.17 250 (З) 4000 м    ясно 
-3.3 -6.1 81 -4  1015.7  0.1  750  306           
03 25.03.17 240 (ЮЗ) 20000 м    8/0 средняя 
[Ac trans]
-2.2 -5 81 -4  1016.6  750  305  -4      25  равномерный
мокрый или
старый снег
100% 
06 25.03.17 240 (ЮЗ) 20000 м    3/0 средняя 
[Ac trans]
+2.2 -4.1 63 1015.9  -0.4  750  300           
09 25.03.17 250 (З) 20000 м    8/0 средняя, верхняя 
[Ac trans|Ci fib]
+3.3 -5.4 53 +1  1015.6  -0.3  750  299           
12 25.03.17 190 (Ю) 20000 м    10/0 средняя 
[Ac As]
+3.6 -3.9 58 +2  1014.4  -1.2  749  298           
15 25.03.17 170 (Ю) 4000 м    10/0 средняя 
[Ac As]
+2.1 -5 59 +1  1013.2  -1.3  748  300    +3.7       
18 25.03.17 180 (Ю) 4000 м    10/0 средняя 
[Ac As]
+0.6 -4 71 -1  1012.2  -1  747  301           
21 25.03.17 170 (Ю) 4000 м    10/0 средняя 
[Ac As]
-0.4 -4.7 73 -2  1011.6  -0.6  747  302           
00 26.03.17 180 (Ю) 4000 м    8/0 средняя 
[Ac trans]
-1.1 -5 75 -3  1010.8  -0.9  746  302           
03 26.03.17 170 (Ю) 20000 м    10/10 600 м 
[Sc]
-0.8 -3.4 83 -3  1010.1  -0.6  746  302  -1.3      19  равномерный
мокрый или
старый снег
100% 
06 26.03.17 180 (Ю) 4{10}  20000 м    10/0 средняя 
[Ac As]
+0.3 -2.4 82 -2  1009.2  -0.9  745  300           
09 26.03.17 170 (Ю) 5{11}  20000 м    10/0 средняя 
[Ac As]
+1 -1.8 82 -2  1007.5  -1.6  744  299           
12 26.03.17 190 (Ю) 20000 м    10/10 600 м 
[Sc]
+1.5 -1.8 79 -1  1006.1  -1.4  743  298           
15 26.03.17 200 (Ю) 10 км    8/0 
[Sc]
+1.3 -1.5 82 1005.3  -0.8  742  298    +1.5       
18 26.03.17 250 (З) 4000 м    3/3 600 м 
[Sc]
-0.3 -2.9 83 -2  1005.6  0.4  743  300           
21 26.03.17 220 (ЮЗ) 4000 м    ясно 
-2.2 -8.8 61 -4  1005.5  -0.4  742  302           
00 27.03.17 190 (Ю) 4000 м    ясно 
-3.3 -9.1 64 -6  1004.8  -0.7  742  303           
03 27.03.17 220 (ЮЗ) 20000 м    ясно 
-2.6 -8.6 63 -5  1005.1  0.4  742  303  -3.6      13  равномерный
мокрый или
старый снег
100% 
06 27.03.17 230 (ЮЗ) 6-11{11}  20000 м    3/0 верхняя 
[Ci fib]
+1.2 -5.8 60 -2  1005.5  0.7  742  298           
09 27.03.17 240 (ЮЗ) 5{11}  20000 м    4/0 верхняя 
[Cs]
+3.6 -7.7 43 +1  1005.3  -0.1  742  296           
12 27.03.17 220 (ЮЗ) 4{10}  20000 м    6/0 средняя 
[As trans]
+3.2 -6.4 49 +1  1005  -0.3  742  296           
15 27.03.17 180 (Ю) 10 км    3/0 средняя 
[Ac As]
+0.7 -6.6 58 1005.5  0.3  742  299    +3.8       
Время (UTC), дата Ветер
(°,м/с) 
Видим.   Явления Облачность Т
(°С)
Тd
(°С)
f(%) Тe
(°С)
Pmin
(гПа)
dP
(гПа)
Po
(мм)
O2
(г/м3)
Тmin Tmax R s Состояние
почвы

Для получения пояснительной информации подведите курсор к названию столбца.

ПОГОДА в Камышлове - архив

Всё, что Вы хотите узнать о погоде в Камышлове - удобно и подробно!

Выберите нужную дату (начиная с 1 января 2015* года) и нажмите кнопку "Найти".
Будут отображены архивные сводки погоды по пункту Камышлов, начиная с указанной даты.


Отображать данные в формате CSV (для использования в таблицах Excel)


Внимание! Наш архив погоды предназначен исключительно для личного некоммерческого использования в познавательных целях. Если Вам необходимы официальные справки о состоянии погоды (для производственных, юридических, коммерческих и т.п. целей), обращайтесь в органы Росгидромета.

*Примечание: данная дата относится к архиву по метеостанциям СССР (Россия, СНГ, Балтия).
Архив по метеостанциям Зарубежной Европы и Азии (кроме Китая) хранится 10 дней, по другим регионам земного шара (Китай, Африка, Америка, Австралия, Океания) - 1 день.

Камышлов - район местоположения метеостанции


Название, широта, долгота, высота метеостанции:
Камышлов 56.9°ш. 62.7°д. 127 м над ур. моря [Российская Федерация]

Дополнительная информация

В oтличие oт бoльшинства пoгoдных сайтoв мы публикуем пoдрoбную метеoинфoрмацию в детальнoм прoфессиoнальнoм фoрмате.

Характеристики температуры и влажнoсти вoздуха измеряются на высoте 2 м в тени вдали oт зданий и деревьев.
Скoрoсть ветра измеряется на высoте 10 м (на урoвне рoста челoвека скoрoсть ветра ниже в 1.5-2 раза). Если метеoстанция нахoдится в гoрoде или в лесу, тo скoрoсть ветра занижена на 2-4 м/с пo сравнению с oткрытым местoм. Скoрoсть ветра над акватoриями крупных рек и oзёр, а также на вершинах хoлмoв на 2-5 м/с выше, чем в oбычных услoвиях.
Атмoсфернoе давление в разных тoчках местнoсти мoжет значительнo oтличаться oт давления на метеoстанции, в зависимoсти oт услoвий рельефа (при пoдъёме на 10 м давление пoнижается примернo на 1 мм рт.ст.).